Station 41001 (LLNR 635) - EAST HATTERAS - 150 NM East of Cape Hatteras Image indicating link to RSS feed of recent meteorological observations for station 41001


Conditions at 41001 as of
(6:10 pm EDT)
2210 GMT on 06/12/2024:
     

Click on the graph icon in the table below to see a time series plot of the last five days of that observation.

5-day plot - Wind Direction Wind Direction (WDIR): E ( 90 deg true )
5-day plot - Wind Speed Wind Speed (WSPD):4.0 m/s
5-day plot - Wind Gust Wind Gust (GST):6.0 m/s
5-day plot - Wave Height Wave Height (WVHT): 1.2 m
5-day plot - Average Wave Period Average Period (APD): 6.5 sec
5-day plot - Mean Wave Direction Mean Wave Direction (MWD):WSW ( 238 deg true )
5-day plot - Atmospheric Pressure Atmospheric Pressure (PRES):1016.8 mb
5-day plot - Air Temperature Air Temperature (ATMP): 25.0 °C
5-day plot - Water Temperature Water Temperature (WTMP): 26.4 °C
5-day plot - Dew Point Dew Point (DEWP): 20.0 °C
5-day plot - Wind Speed at 10 Meters Wind Speed at 10 meters (WSPD10M): 5 m/s
5-day plot - Wind Speed at 20 Meters Wind Speed at 20 meters (WSPD20M): 5 m/s
5-day plot -  Wind Speed, Wind Gust and Atmospheric Pressure Combined plot of Wind Speed, Gust, and Air Pressure
Supplemental Measurements
Highest 1-minute Wind Speed
Time (EDT)5-day plot - 1-Minute Wind Speed WSPD 5-day plot - 1-Minute Wind Direction WDIR
6:01 pm 5 m/s-
Previous observations
TIME
(EDT)
5-day plot - Wind Direction
WDIR
 
5-day plot - Wind Speed
WSPD
m/s
5-day plot - Wind Gust
GST
m/s
5-day plot - Wave Height
WVHT
m
5-day plot - Dominant Wave Period
DPD
sec
5-day plot - Average Wave Period
APD
sec
5-day plot - Mean Wave Direction
MWD
 
5-day plot - Atmospheric Pressure
PRES
mb
5-day plot - Pressure Tendency
PTDY
mb
5-day plot - Air Temperature
ATMP
°C
5-day plot - Water Temperature
WTMP
°C
5-day plot - Dew Point
DEWP
°C
5-day plot - Salinity
SAL
psu
5-day plot - Visibility
VIS
km
5-day plot - Tide (above MLLW)
TIDE
m
2024-06-12 06:00 pm E 4.0 6.0----1016.8 -0.8 24.9 26.4 20.1---
2024-06-12 05:50 pm E 4.0 5.0 1.2 86.4 SW1016.8- 24.9 26.4 20.5---
2024-06-12 05:40 pm E 4.0 5.0 1.2-6.4 SW1016.9- 25.0 26.4 20.5---
2024-06-12 05:30 pmESE 4.0 6.0----1017.0- 25.0 26.4 20.3---
2024-06-12 05:20 pm E 4.0 6.0 1.2 86.4WSW1017.0- 24.9 26.4 20.4---
2024-06-12 05:10 pm E 4.0 6.0 1.2-6.4WSW1017.1- 24.9 26.4 20.6---
2024-06-12 05:00 pm E 4.0 6.0----1017.1 -0.6 24.9 26.5 20.8---
2024-06-12 04:50 pm E 4.0 5.0 1.3 86.7 SW1017.2- 24.8 26.5 20.8---
2024-06-12 04:40 pm E 4.0 5.0 1.3-6.7 SW1017.3- 24.8 26.5 20.7---
2024-06-12 04:30 pm E 4.0 5.0----1017.5- 24.8 26.4 20.8---
2024-06-12 04:20 pm E 4.0 6.0 1.3 86.5WSW1017.4- 24.8 26.4 20.7---
2024-06-12 04:10 pm E 4.0 5.0 1.3-6.5WSW1017.4- 24.8 26.4 20.6---
2024-06-12 04:00 pm E 4.0 5.0----1017.5 -0.4 24.7 26.4 20.5---
2024-06-12 03:50 pm E 4.0 5.0 1.3 96.5 SW1017.4- 24.7 26.5 20.5---
2024-06-12 03:40 pm E 4.0 5.0 1.3-6.5 SW1017.4- 24.7 26.5 20.5---
2024-06-12 03:30 pmENE 4.0 5.0----1017.4- 24.7 26.5 20.5---
2024-06-12 03:20 pm E 3.0 4.0 1.6 97.0 SW1017.5- 24.7 26.5 20.5---
2024-06-12 03:10 pm E 3.0 5.0 1.6-7.0 SW1017.5- 24.6 26.4 20.3---
2024-06-12 03:00 pm E 3.0 5.0----1017.5 -0.5 24.7 26.4 20.4---
2024-06-12 02:50 pmENE 3.0 5.0 1.4 96.7WSW1017.5- 24.6- 20.4---
2024-06-12 02:40 pmENE 3.0 5.0 1.4-6.7WSW1017.5- 24.6 26.4 20.4---
2024-06-12 02:30 pmENE 3.0 5.0----1017.3- 24.6 26.4 20.3---
2024-06-12 02:20 pm E 3.0 5.0 1.3 96.5WSW1017.4- 24.6 26.4 20.2---
2024-06-12 02:10 pm E 3.0 5.0----1017.5- 24.6 26.3 20.1---
2024-06-12 02:00 pm E 3.0 5.0----1017.5 -0.4 24.6 26.4 20.0---
2024-06-12 01:50 pm E 3.0 4.0 1.1 86.2 SW1017.7- 24.7 26.3 20.1---
2024-06-12 01:40 pm E 3.0 4.0----1017.7- 24.6 26.4 19.6---
2024-06-12 01:30 pm E 3.0 4.0----1017.8- 24.7 26.4 19.6---
2024-06-12 01:20 pm E 3.0 4.0 1.4 96.5 SW1017.9- 24.7 26.3 19.3---
2024-06-12 01:10 pm E 3.0 5.0 1.4-6.5 SW1017.9- 24.8 26.3 19.0---
2024-06-12 01:00 pm E 3.0 4.0----1018.0 +0.4 24.7 26.3 18.7---
2024-06-12 12:50 pm E 3.0 4.0 1.2 86.2SSW1018.1- 24.8 26.3 18.7---
2024-06-12 12:40 pm E 3.0 4.0 1.2-6.2SSW1018.1- 24.8 26.3 18.4---
2024-06-12 12:30 pm E 3.0 4.0----1018.1- 24.8 26.2 18.0---
2024-06-12 12:20 pm E 3.0 4.0 1.1 86.0SSW1018.1- 24.8 26.2 18.5---
2024-06-12 12:10 pm E 3.0 4.0 1.1-6.0SSW1018.1- 24.7 26.2 18.3---
2024-06-12 12:00 pm E 3.0 4.0----1018.1 +0.7 24.6 26.2 18.4---
2024-06-12 11:50 am E 3.0 5.0 1.2 96.1SSW1018.1- 24.6 26.1 18.8---
2024-06-12 11:40 am E 3.0 5.0 1.2-6.1SSW1018.0- 24.7 26.1 18.9---
2024-06-12 11:30 am E 3.0 5.0----1018.1- 24.7 26.1 18.9---
2024-06-12 11:20 am E 3.0 5.0 1.0 85.6SSW1018.1- 24.7 26.1 18.8---
2024-06-12 11:10 am E 3.0 4.0 1.0-5.6SSW1018.0- 24.7 26.1 18.2---
2024-06-12 11:00 am E 3.0 5.0----1018.0 +1.1 24.8 26.1 18.2---
2024-06-12 10:50 am E 3.0 5.0 1.0 65.5 S1017.9- 24.8 26.1 18.2---
2024-06-12 10:40 am E 3.0 4.0 1.0-5.5 S1017.9- 24.8 26.1 18.0---
2024-06-12 10:30 am E 4.0 4.0----1017.8- 24.8 26.1 18.2---
2024-06-12 10:20 am E 4.0 5.0 0.9 75.2 S1017.8- 24.8 26.0 18.1---
2024-06-12 10:10 am E 4.0 6.0 0.9-5.2 S1017.7- 24.9 26.0 18.4---
2024-06-12 10:00 am E 4.0 5.0----1017.6 +0.9 24.8 26.0 18.0---
2024-06-12 09:50 am E 4.0 5.0 1.0 75.3SSW1017.5- 24.8 26.0 18.3---
2024-06-12 09:40 am E 4.0 5.0----1017.5- 24.8 26.0 18.5---
2024-06-12 09:30 am E 4.0 5.0----1017.5- 24.8 26.0 18.6---
2024-06-12 09:20 am E 4.0 5.0 0.9 75.0 SW1017.4- 24.8 26.0 18.3---
2024-06-12 09:10 am E 4.0 5.0 0.9-5.0 SW1017.4- 25.0 26.0 18.0---
2024-06-12 09:00 am E 4.0 5.0----1017.3 +1.2 25.1 26.0 17.0---
2024-06-12 08:50 am E 4.0 6.0 0.9 64.9SSW1017.3- 25.2 26.0 17.1---
2024-06-12 08:40 amENE 4.0 6.0 0.9-4.9SSW1017.4- 25.1 26.0 16.2---
2024-06-12 08:30 amENE 4.0 6.0----1017.2- 25.0 26.0 17.2---
2024-06-12 08:20 amENE 5.0 6.0 0.9 75.1SSW1017.2- 24.8 26.0 17.3---
2024-06-12 08:10 am NE 5.0 6.0 0.9-5.1SSW1017.1- 24.7 26.0 17.7---
2024-06-12 08:00 am NE 5.0 6.0----1016.9 +1.2 24.7 26.0 18.9---
2024-06-12 07:50 am NE 5.0 7.0 1.0 65.0SSW1016.8- 24.6 26.0 18.9---
2024-06-12 07:40 am NE 5.0 7.0----1016.8- 24.6 26.0 18.9---
2024-06-12 07:30 am NE 5.0 6.0----1016.7- 24.5 26.0 19.1---
2024-06-12 07:20 amENE 4.0 6.0 0.9 75.0SSW1016.8- 24.5 26.0 19.5---
2024-06-12 07:10 amENE 4.0 6.0 0.9-5.0SSW1016.8- 24.5 26.0 19.3---
2024-06-12 07:00 amENE 4.0 6.0----1016.7 +1.9 24.4 26.0 19.1---
2024-06-12 06:50 amENE 4.0 6.0 1.0 65.1SSW1016.6- 24.4 26.1 19.2---
2024-06-12 06:40 amENE 5.0 6.0 1.0-5.1SSW1016.5- 24.3 26.0 19.2---
2024-06-12 06:30 amENE 5.0 6.0----1016.4- 24.3 26.1 19.4---
2024-06-12 06:20 amENE 5.0 7.0 1.0 65.1 S1016.4- 24.4 26.1 19.5---
2024-06-12 06:10 am NE 5.0 6.0 1.0-5.1 S1016.3- 24.3 26.1 19.4---
2024-06-12 06:00 amENE 5.0 7.0----1016.1 +1.5 24.3 26.1 19.3---
2024-06-12 05:50 amENE 5.0 6.0 1.0 65.1SSW1016.2- 24.3 26.1 19.5---
2024-06-12 05:40 amENE 5.0 6.0----1016.1- 24.2 26.1 19.5---
2024-06-12 05:30 am NE 5.0 7.0----1016.0- 24.2 26.2 19.6---
2024-06-12 05:20 am NE 5.0 7.0 1.0 75.0SSW1015.9- 24.2 26.1 19.5---
2024-06-12 05:10 am NE 5.0 7.0 1.0-5.0SSW1015.8- 24.2 26.2 19.6---
2024-06-12 05:00 am NE 5.0 7.0----1015.7 +0.9 24.1 26.2 19.2---
2024-06-12 04:50 am NE 6.0 7.0 1.0 75.1SSW1015.5- 24.1 26.2 19.5---
2024-06-12 04:40 am NE 5.0 8.0 1.0-5.1SSW1015.3- 24.1 26.2 19.5---
2024-06-12 04:30 am NE 6.0 7.0----1015.1- 24.1 26.2 19.7---
2024-06-12 04:20 am NE 6.0 7.0 1.0 75.1SSW1015.0- 24.2 26.3 19.7---
2024-06-12 04:10 am NE 6.0 8.0 1.0-5.1SSW1014.8- 24.2 26.3 19.8---
2024-06-12 04:00 am NE 5.0 7.0----1014.8 +0.4 24.3 26.3 19.9---
2024-06-12 03:50 am NE 5.0 7.0 1.0 75.1 SW1014.9- 24.2 26.3 19.7---
2024-06-12 03:40 am NE 5.0 6.0----1014.9- 24.3 26.3 20.1---
2024-06-12 03:30 am NE 5.0 6.0----1014.9- 24.3 26.3 19.9---
2024-06-12 03:20 amNNE 6.0 7.0 1.0 75.2 SW1014.7- 24.3 26.3 19.5---
2024-06-12 03:10 am NE 5.0 6.0----1014.8- 24.3 26.4 19.4---
2024-06-12 03:00 am NE 5.0 7.0----1014.7 +0.3 24.4 26.4 19.8---
2024-06-12 02:50 amNNE 5.0 6.0 1.1 75.3SSW1014.6- 24.4 26.4 19.5---
2024-06-12 02:40 am NE 4.0 5.0----1014.8- 24.4 26.4 19.6---
2024-06-12 02:30 am NE 4.0 5.0----1014.9- 24.4 26.4 19.9---
2024-06-12 02:20 am NE 4.0 5.0 1.1 75.4SSW1014.9- 24.3 26.5 19.9---
2024-06-12 02:10 am NE 4.0 5.0 1.1-5.4SSW1014.8- 24.3 26.5 20.4---
2024-06-12 02:00 amNNE 4.0 5.0----1014.8 +0.6 24.3 26.5 20.6---
2024-06-12 01:50 am NE 4.0 5.0 1.1 65.4SSW1014.7- 24.4 26.5 20.7---
2024-06-12 01:40 am NE 3.0 5.0----1014.7- 24.3 26.5 20.7---
2024-06-12 01:30 am NE 3.0 5.0----1014.7- 24.4 26.5 20.9---
2024-06-12 01:20 amNNE 4.0 5.0 1.1 75.3SSW1014.6- 24.4 26.5 21.0---
2024-06-12 01:10 amNNE 4.0 5.0----1014.5- 24.4 26.5 21.0---
2024-06-12 01:00 amNNE 4.0 6.0----1014.5 +0.0 24.4 26.6 21.2---
2024-06-12 12:50 amNNE 4.0 6.0 0.9 65.1SSW1014.4- 24.5 26.5 21.4---
2024-06-12 12:40 am NE 4.0 6.0----1014.4- 24.3 26.5 21.3---
2024-06-12 12:30 am NE 4.0 5.0----1014.3- 24.4 26.6 21.7---
2024-06-12 12:20 am NE 4.0 6.0 1.0 75.2SSW1014.2- 24.3 26.6 21.6---
2024-06-12 12:10 am NE 4.0 5.0 1.0-5.2SSW1014.4- 24.3 26.6 21.6---
2024-06-12 12:00 am NE 4.0 5.0----1014.5 +0.6 24.3 26.6 21.5---
2024-06-11 11:50 pmENE 4.0 5.0 1.1 65.1SSW1014.4- 24.3 26.6 21.5---
2024-06-11 11:40 pmENE 4.0 5.0 1.1-5.1SSW1014.3- 24.3 26.6 21.6---
2024-06-11 11:30 pmENE 3.0 5.0----1014.3- 24.3 26.4 21.6---
2024-06-11 11:20 pm E 4.0 5.0 1.1 75.1 SW1014.3- 24.3 26.3 21.6---
2024-06-11 11:10 pm E 4.0 5.0 1.1-5.1 SW1014.3- 24.3 26.3 21.6---
2024-06-11 11:00 pm E 4.0 5.0----1014.2 +1.1 24.3 26.2 21.7---
2024-06-11 10:50 pm E 3.0 5.0 1.1 75.1SSW1014.3- 24.3 26.3 21.7---
2024-06-11 10:40 pm E 3.0 4.0 1.1-5.1SSW1014.3- 24.4 26.2 21.8---
2024-06-11 10:30 pmENE 3.0 4.0----1014.3- 24.5 26.2 21.5---
2024-06-11 10:20 pmENE 3.0 4.0 1.1 65.0SSW1014.3- 24.4 26.0 21.5---
2024-06-11 10:10 pm E 3.0 3.0----1014.3- 24.4 25.9 21.7---
2024-06-11 10:00 pm E 2.0 3.0----1014.5 +1.5 24.6 25.9 21.9---
2024-06-11 09:50 pmENE 2.0 3.0 1.1 65.0 S1014.4- 24.7 25.9 21.7---
2024-06-11 09:40 pmNNE 2.0 4.0----1014.4- 24.8 25.9 21.4---
2024-06-11 09:30 pm N 2.0 3.0----1014.3- 24.7 25.9 21.4---
2024-06-11 09:20 pmNNE 2.0 3.0 1.2 64.9SSW1014.0- 24.6 25.9 21.3---
2024-06-11 09:10 pmNNE 2.0 3.0 1.2-4.9SSW1014.0- 24.6 25.9 21.5---
2024-06-11 09:00 pm NE 2.0 3.0----1013.8 +1.5 24.7 25.9 21.6---
2024-06-11 08:50 pm N 2.0 3.0 1.2 74.8 SW1013.8- 24.9 25.8 21.7---
2024-06-11 08:40 pm N 3.0 5.0 1.2-4.8 SW1013.7- 24.9 25.7 21.5---
2024-06-11 08:30 pm NW 3.0 5.0----1013.5- 24.8 25.6 21.3---
2024-06-11 08:20 pmWNW 5.0 6.0 1.2 64.8SSW1013.3- 25.0 25.6 21.7---
2024-06-11 08:10 pm W 4.0 5.0 1.2-4.8SSW1013.2- 25.1 25.6 21.8---
2024-06-11 08:00 pmWNW 4.0 6.0----1013.2 +1.1 25.0 25.6 21.6---
2024-06-11 07:50 pmWNW 3.0 4.0 1.3 64.8 SW1013.3- 24.9 25.6 21.5---
2024-06-11 07:40 pmWNW 4.0 6.0----1013.4- 25.0 25.5 21.6---
2024-06-11 07:20 pm W 5.0 6.0 1.2 64.8SSW1013.3- 25.1 25.5 21.7---
2024-06-11 07:10 pm W 5.0 6.0 1.2-4.8SSW1013.1- 25.0 25.5 21.6---
2024-06-11 07:00 pm W 5.0 6.0----1013.0 +1.3 25.1 25.5 21.6---
2024-06-11 06:50 pm W 5.0 6.0 1.2 64.7 S1012.9- 25.0 25.6 21.6---
2024-06-11 06:40 pm W 5.0 7.0----1012.8- 25.0 25.5 21.6---
2024-06-11 06:30 pm W 6.0 9.0----1012.6- 25.0 25.5 21.8---
2024-06-11 06:20 pm W 6.0 7.0 1.2 64.6SSW1012.5- 24.9 25.5 21.8---
2024-06-11 06:10 pm W 6.0 7.0----1012.4- 24.8 25.5 21.9---
2024-06-11 06:00 pm W 6.0 7.0----1012.4 +0.9 24.7 25.5 22.0---
2024-06-11 05:50 pmWSW 6.0 8.0 1.3 64.8SSW1012.3- 24.6 25.5 22.0---

Detailed Wave Summary
for 41001 as of (6:10 pm EDT)
2210 GMT on 06/12/2024:

These wave data are displayed in rounded times.

     

Click on the graph icon in the table below to see a time series plot of the last five days of that observation.

5-day plot - Significant Wave Height Significant Wave Height (WVHT): 1.2 m
5-day plot - Swell Height Swell Height (SwH): 1.2 m
5-day plot - Swell Period Swell Period (SwP): 8.3 sec
5-day plot - Swell Direction Swell Direction (SwD):WSW
5-day plot - Wind Wave Height Wind Wave Height (WWH): 0.3 m
5-day plot - Wind Wave Period Wind Wave Period (WWP): 3.4 sec
5-day plot - Wind Wave Direction Wind Wave Direction (WWD):ESE
5-day plot - Wave Steepness Wave Steepness (STEEPNESS): AVERAGE
5-day plot - Average Wave Period Average Wave Period (APD): 6.5 sec
Previous observations
TIME
(EDT)
5-day plot - Wave Height
WVHT
m
5-day plot - Swell Height
SwH
m
5-day plot - Swell Period
SwP
sec
5-day plot - Swell Direction
SwD
 
5-day plot - Wind Wave Height
WWH
m
5-day plot - Wind Wave Period
WWP
sec
5-day plot - Wind Wave Direction
WWD
 
5-day plot - Wave Steepness
STEEPNESS
 
5-day plot - Average Wave Period
APD
sec
2024-06-12 05:40 pm 1.2 1.2 8.3 SW 0.3 3.6 SE AVERAGE 6.4
2024-06-12 05:10 pm 1.2 1.2 8.3WSW 0.3 3.7 SE AVERAGE 6.4
2024-06-12 04:40 pm 1.3 1.3 8.3 SW 0.3 4.0 ESE AVERAGE 6.7
2024-06-12 04:10 pm 1.3 1.2 8.3WSW 0.3 3.7 ESE AVERAGE 6.5
2024-06-12 03:40 pm 1.3 1.3 9.1 SW 0.3 3.8 SE SWELL 6.5
2024-06-12 03:10 pm 1.6 1.5 9.1 SW 0.3 3.7 ESE AVERAGE 7.0
2024-06-12 02:40 pm 1.4 1.4 9.1WSW 0.3 3.8 SE SWELL 6.7
2024-06-12 02:10 pm 1.3 1.3 9.1WSW 0.3 3.8 SE SWELL 6.5
2024-06-12 01:40 pm 1.1 1.1 8.3 SW 0.3 4.0 SE AVERAGE 6.2
2024-06-12 01:10 pm 1.4 1.3 9.1 SW 0.3 4.0 ESE SWELL 6.5
2024-06-12 12:40 pm 1.2 1.2 8.3SSW 0.3 3.8 ESE AVERAGE 6.2
2024-06-12 12:10 pm 1.1 1.1 8.3SSW 0.3 3.8 ESE AVERAGE 6.0
2024-06-12 11:40 am 1.2 1.2 9.1SSW 0.3 4.0 ESE SWELL 6.1
2024-06-12 11:10 am 1.0 0.9 8.3SSW 0.3 3.6 ESE SWELL 5.6
2024-06-12 10:40 am 1.0 0.9 5.9 S 0.3 3.1 E STEEP 5.5
2024-06-12 10:10 am 0.9 0.8 6.7 S 0.4 3.3 ENE AVERAGE 5.2
2024-06-12 09:40 am 1.0 0.9 6.7SSW 0.3 3.2 ENE AVERAGE 5.3
2024-06-12 09:10 am 0.9 0.8 6.7 SW 0.4 3.4 ENE AVERAGE 5.0
2024-06-12 08:40 am 0.9 0.8 6.2SSW 0.4 3.4 NE STEEP 4.9
2024-06-12 08:10 am 0.9 0.8 6.7SSW 0.4 3.1 NE AVERAGE 5.1
2024-06-12 07:40 am 1.0 0.8 6.2SSW 0.5 5.0 S STEEP 5.0
2024-06-12 07:10 am 0.9 0.8 6.7SSW 0.4 3.7 NNE AVERAGE 5.0
2024-06-12 06:40 am 1.0 0.9 6.2SSW 0.4 3.4 NNE STEEP 5.1
2024-06-12 06:10 am 1.0 0.9 6.2 S 0.4 3.3 NNE STEEP 5.1
2024-06-12 05:40 am 1.0 0.9 6.2SSW 0.5 3.7 NE STEEP 5.1
2024-06-12 05:10 am 1.0 0.8 6.7SSW 0.5 4.8 S AVERAGE 5.0
2024-06-12 04:40 am 1.0 0.9 6.7SSW 0.5 4.8 S AVERAGE 5.1
2024-06-12 04:10 am 1.0 0.8 6.7SSW 0.6 5.6 SSW AVERAGE 5.1
2024-06-12 03:40 am 1.0 0.9 6.7 SW 0.4 4.5 S AVERAGE 5.1
2024-06-12 03:10 am 1.0 0.9 6.7 SW 0.4 4.5 SW AVERAGE 5.2
2024-06-12 02:40 am 1.1 1.0 6.7SSW 0.3 3.8 S AVERAGE 5.3
2024-06-12 02:10 am 1.1 1.0 6.7SSW 0.3 3.8 S STEEP 5.4
2024-06-12 01:40 am 1.1 1.0 6.2SSW 0.3 3.8 SSW STEEP 5.4
2024-06-12 01:10 am 1.1 1.0 6.7SSW 0.4 3.8 S STEEP 5.3
2024-06-12 12:40 am 0.9 0.8 6.2SSW 0.3 3.7 S STEEP 5.1
2024-06-12 12:10 am 1.0 1.0 6.7SSW 0.4 3.6 S AVERAGE 5.2
2024-06-11 11:40 pm 1.1 1.0 5.9SSW 0.4 3.7 SSW STEEP 5.1
2024-06-11 11:10 pm 1.1 1.1 7.1 SW 0.4 4.0 S AVERAGE 5.1
2024-06-11 10:40 pm 1.1 1.0 6.7SSW 0.4 3.6 SSW STEEP 5.1
2024-06-11 10:10 pm 1.1 1.0 5.9SSW 0.4 3.3 S STEEP 5.0
2024-06-11 09:40 pm 1.1 1.0 5.9 S 0.5 4.0 S STEEP 5.0
2024-06-11 09:10 pm 1.2 1.1 6.2SSW 0.5 3.8 S STEEP 4.9
2024-06-11 08:40 pm 1.2 1.1 6.7 SW 0.5 3.7 S STEEP 4.8
2024-06-11 08:10 pm 1.2 1.1 6.2SSW 0.5 3.7 SSW STEEP 4.8
2024-06-11 07:40 pm 1.3 1.1 6.2 SW 0.5 3.7 S STEEP 4.8
2024-06-11 07:10 pm 1.2 1.1 5.6SSW 0.6 3.8 SSWVERY_STEEP 4.8
2024-06-11 06:40 pm 1.2 1.0 5.6 S 0.7 4.8 SVERY_STEEP 4.7
2024-06-11 06:10 pm 1.2 0.8 6.2SSW 0.9 5.6 S STEEP 4.6

Plot of wave energy versus frequency (and period)